Starlink 11510

operational
NORAD ID: 62516 Int'l Des: 2025-004 Owner: SPXS Country: US Constellation: starlink
LEOCIRCULAR

关于 Starlink 11510

正在加载描述...

实时位置

正在加载3D地球...

即将过境

高度历史

Altitude vs Time

uPlot chart will show altitude changes over time

两行轨道根数

1 62516U 25004F 26034.72453813 .00239287 00000-0 18151-2 0 9998
2 62516 43.0011 275.7310 0002238 272.6812 87.3799 15.70840606 61860
Epoch: Feb 3, 2026 • Age: 27 hours

当前状态

高度 355.8 km
速度 7.70 km/s
星下点 -6.25°S, 18.81°E
发射日期 Jan 8, 2025
运行时间 1 years
类型 internet

技术详情

分类 Payload
质量 960.00 kg
干质量 910.00 kg
总质量 960.00 kg
长度 0.30 m
直径 4.10 m
跨度 29.00 m
形状 Box + pan
制造商 SPXS
平台类型 Starlink V2MD
阶段状态 In Orbit
所有者/国家 SPXS/US

大型星座

Loading constellations...